AO-07 1 07530U 74089B 14268.54806010 -.00000026 00000-0 10673-3 0 808 2 07530 101.4849 247.1161 0012395 098.6665 047.1090 12.53607320824099 FO-29 1 24278U 96046B 14267.08639596 .00000004 00000-0 37933-4 0 4835 2 24278 098.5154 267.2966 0350993 041.1959 359.0942 13.53029655894049 SO-33 1 25509U 98061B 14266.54096763 .00000664 00000-0 11641-3 0 8467 2 25509 031.4345 323.0779 0349381 256.1075 247.6977 14.29629671831234 RS-22 1 27939U 03042A 14268.54789711 .00000832 00000-0 16229-3 0 8931 2 27939 097.8164 077.7602 0013712 145.0093 215.2027 14.65344956587424 HO-68 1 36122U 09072B 14268.59045697 -.00000043 00000-0 00000 0 0 9793 2 36122 100.2391 317.3586 0007587 008.4041 351.7201 13.16318248229648 AO-73 1 39444U 13066AE 14267.17093747 .00001890 00000-0 25753-3 0 2668 2 39444 097.7612 334.4238 0060306 282.1581 077.2870 14.78620293 44097 EO-79 1 40025U 14033R 14268.45958327 .00002150 00000-0 25519-3 0 2868 2 40025 097.9716 163.2665 0013125 337.1042 022.9537 14.85489330 14472 UO-11 1 14781U 84021B 14267.16967841 .00000596 00000-0 82204-4 0 6175 2 14781 097.8411 325.3170 0008294 209.4416 150.6331 14.81749954642624 AO-16 1 20439U 90005D 14267.85480447 .00000169 00000-0 78487-4 0 1325 2 20439 098.5129 203.3401 0010244 219.4810 210.8006 14.32390871288758 LO-19 1 20442U 90005G 14267.32425273 .00000120 00000-0 60193-4 0 687 2 20442 098.4840 203.1751 0011382 209.7013 150.3526 14.32590232288879 AO-27 1 22825U 93061C 14267.07661029 .00000122 00000-0 64714-4 0 7796 2 22825 098.6718 212.6707 0008470 016.2485 042.5553 14.29748501 94918 IO-26 1 22826U 93061D 14268.08919061 .00000168 00000-0 82186-4 0 5376 2 22826 098.6660 213.8830 0008779 005.4042 354.7233 14.30052528 95199 GO-32 1 25397U 98043D 14268.19850060 .00000066 00000-0 47367-4 0 4594 2 25397 098.4812 222.5115 0001867 059.2723 064.6796 14.23463156842094 NO-44 1 26931U 01043C 14267.14190450 .00000039 00000-0 47085-4 0 7137 2 26931 067.0511 143.2787 0007338 276.6311 083.3955 14.30153595677753 SO-50 1 27607U 02058C 14268.98249338 .00000992 00000-0 14619-3 0 5231 2 27607 064.5569 285.0553 0059450 343.5078 016.4580 14.73923831632332 CO-55 1 27844U 03031E 14267.02388579 .00000209 00000-0 11539-3 0 325 2 27844 098.6995 274.3777 0009325 356.9888 061.3371 14.21562184582624 CO-57 1 27848U 03031J 14266.98066683 .00000177 00000-0 10126-3 0 9742 2 27848 098.7089 274.1003 0009363 004.1281 056.0657 14.21242019582534 AO-51 1 28375U 04025K 14268.09747289 .00000321 00000-0 10795-3 0 9523 2 28375 098.2599 211.6483 0083900 051.1490 309.7148 14.41432856538303 CP3 1 31129U 07012N 14268.16964242 .00001452 00000-0 32650-3 0 8575 2 31129 097.9462 241.1506 0099306 060.1224 001.7179 14.54867083394575 CO-65 1 32785U 08021C 14268.12806995 .00001526 00000-0 18228-3 0 727 2 32785 097.6881 316.0970 0013260 214.2887 198.3883 14.85568950346864 PRISM 1 33493U 09002B 14268.69654425 .00004537 00000-0 47443-3 0 3342 2 33493 098.2532 088.6956 0018595 113.9171 246.3991 14.90070451307146 SOHLA-1 1 33496U 09002E 14266.90738733 .00000402 00000-0 74045-4 0 4709 2 33496 098.1820 028.1487 0005106 290.3447 185.3098 14.70900220304024 TISAT-1 1 36799U 10035E 14268.62522578 .00002843 00000-0 33040-3 0 5841 2 36799 098.0158 001.3976 0013258 000.2950 359.8259 14.86110553227633 STUDSAT 1 36801U 10035G 14267.02295419 .00013817 00000-0 11552-2 0 8961 2 36801 098.0380 009.8819 0008186 321.7645 092.3716 14.98594318227926 ALMASAT-1 1 38078U 12006B 14269.03319468 .00028559 00000-0 55263-3 0 1648 2 38078 069.4690 175.1115 0577327 257.4889 096.1550 14.54957744136508 XATCOBEO 1 38082U 12006F 14243.34478676 .13583328 43697-5 37939-3 0 5637 2 38082 069.3815 097.0364 0033293 225.1799 135.4582 16.41261006136239 CUBEBUG-1 1 39153U 13018D 14268.22688705 .00001647 00000-0 23520-3 0 5138 2 39153 098.0347 348.3093 0018540 030.9883 329.2404 14.77959071 76336 ESTCUBE-1 1 39161U 13021C 14268.61714722 .00001308 00000-0 22524-3 0 5118 2 39161 098.0918 348.7568 0011516 077.8881 282.3620 14.70190567 74353 DUCHIFAT-1 1 40021U 14033M 14267.97915574 .00003117 00000-0 36522-3 0 2924 2 40021 097.9724 162.8261 0014499 340.8925 019.1735 14.85681756 14395 NANOSATCBR1 1 40024U 14033Q 14268.45745285 .00002680 00000-0 31595-3 0 2830 2 40024 097.9730 163.2683 0012852 337.8368 022.2274 14.85554886 14460 DTUSAT-2 1 40030U 14033W 14268.55116835 .00002172 00000-0 26014-3 0 2815 2 40030 097.9689 163.2906 0011784 331.9895 028.0686 14.85115338 14489 ANTELSAT 1 40034U 14033AA 14268.64214519 .00001681 00000-0 27213-3 0 2868 2 40034 097.9677 161.2802 0060203 246.5454 112.9413 14.71418127 14371 MET-2/21 1 22782U 93055A 14268.15903218 .00000043 00000-0 25379-4 0 1813 2 22782 082.5463 093.9851 0021693 347.8273 149.6537 13.83744280 63948 OKEAN-4 1 23317U 94066A 14268.16829881 .00000998 00000-0 11175-3 0 6626 2 23317 082.5395 334.1850 0022071 126.9815 292.7966 14.85731195 77951 NOAA-14 1 23455U 94089A 14268.48424016 .00000018 00000-0 32282-4 0 9236 2 23455 098.7732 350.1177 0010565 113.6947 310.1445 14.13988048 18125 NOAA-15 1 25338U 98030A 14268.44083274 .00000145 00000-0 80179-4 0 3605 2 25338 098.7602 262.1402 0010166 211.3654 314.1197 14.25472120851129 RESURS 1 25394U 98043A 14268.11275576 .00000027 00000-0 29662-4 0 7684 2 25394 098.4262 228.3350 0001136 028.3423 033.5998 14.24399678842545 FENGYUN1 1 25730U 99025A 14266.96987743 .00002077 00000-0 11537-2 0 2576 2 25730 098.9191 227.4929 0021132 186.3903 215.7946 14.12117316791468 OKEAN-0 1 25860U 99039A 14267.94110441 .00000716 00000-0 11301-3 0 3712 2 25860 098.0560 231.2848 0002033 101.9889 324.2106 14.75404846816863 NOAA-16 1 26536U 00055A 14268.41779449 .00000067 00000-0 60293-4 0 8589 2 26536 098.9798 329.1647 0009612 258.4735 101.5358 14.13038416722261 NOAA-17 1 27453U 02032A 14268.40746900 .00000136 00000-0 75750-4 0 7490 2 27453 098.3208 262.8721 0010841 235.7202 124.2952 14.24780002636958 NOAA-18 1 28654U 05018A 14268.45683922 .00000233 00000-0 15252-3 0 2673 2 28654 099.1598 250.0225 0013921 347.1180 177.0069 14.12065086481718 NOAA-19 1 33591U 09005A 14268.50183324 .00000229 00000-0 15033-3 0 4030 2 33591 098.9539 213.2790 0013799 192.4389 301.7203 14.11766654290148 HUBBLE 1 20580U 90037B 14266.96955307 .00002315 00000-0 14413-3 0 1200 2 20580 028.4694 107.6130 0002766 267.7109 220.4993 15.05779391139628 ISS 1 25544U 98067A 14268.96548454 .00013210 00000-0 22586-3 0 1575 2 25544 051.6456 320.0840 0001796 125.1033 235.0646 15.50638815906962 CO-58 1 28895U 05043F 14267.31492924 .00000630 00000-0 13409-3 0 8817 2 28895 097.8284 104.0170 0018456 060.8119 299.4927 14.62036089474730 FALCON 1 30776U 07006E 14267.17943696 .00009407 00000-0 46042-3 0 9675 2 30776 035.4290 220.3581 0000673 177.9226 311.4329 15.17506552415773 MAST 1 31126U 07012K 14266.93323765 .00000780 00000-0 17943-3 0 1613 2 31126 097.9261 242.7379 0092816 047.1359 012.2154 14.55401986394754 CAPE1 1 31130U 07012P 14267.20331168 .00001142 00000-0 26027-3 0 1677 2 31130 097.9474 239.7739 0099976 064.5712 296.5792 14.54601826394200 COMPASS 1 32787U 08021E 14267.14397634 .00003256 00000-0 35686-3 0 544 2 32787 097.6909 317.8138 0013246 207.9614 152.0893 14.88364204346905 AAUSAT2 1 32788U 08021F 14268.10758273 .00003360 00000-0 36124-3 0 423 2 32788 097.6919 319.8604 0012744 202.7443 157.3212 14.89132791347114 DO-64 1 32789U 08021G 14268.15305899 .00007395 00000-0 69091-3 0 859 2 32789 097.7108 327.4015 0012024 186.3709 226.7123 14.94384763347420 CO-66 1 32791U 08021J 14267.19228593 .00002474 00000-0 28222-3 0 371 2 32791 097.6902 316.4136 0013835 212.7347 147.3013 14.86931263346765 RS-30 1 32953U 08025A 14268.51685680 .00000010 00000-0 00000 0 0 3328 2 32953 082.5097 138.8481 0018105 302.1972 057.7350 12.43050448287721 METEOR-M 1 35865U 09049A 14268.14659654 -.00000006 00000-0 16559-4 0 9313 2 35865 098.5404 312.4774 0002509 144.9869 215.1478 14.21929667260546 RS-38 1 35869U 09049E 14269.00608906 .00000114 00000-0 51474-4 0 8398 2 35869 098.5315 313.0607 0004566 151.8830 208.3080 14.22228126260763 JUGNU 1 37839U 11058B 14266.67679907 .00000405 00000-0 74392-4 0 7025 2 37839 019.9625 018.0076 0019263 349.9989 149.7021 14.12338546152490 SRMSAT 1 37841U 11058D 14267.79927078 .00000399 00000-0 74995-4 0 7040 2 37841 019.9731 032.5260 0011950 299.2033 191.3962 14.10375823152437 RAX-2 1 37853U 11061D 14267.19669519 .00009528 00000-0 63938-3 0 9177 2 37853 101.7058 344.1088 0213081 130.2002 288.7563 14.90520113157403 AUBIESAT 1 37854U 11061E 14268.16538150 .00012770 00000-0 82501-3 0 9150 2 37854 101.7088 347.7608 0210503 124.0438 294.6310 14.92014704157619 HRBE 1 37855U 11061F 14267.25252705 .00010082 00000-0 66240-3 0 9313 2 37855 101.7103 345.6129 0212974 128.2441 233.8143 14.91221131157439 RS-39 1 38051U 11062C 14268.47285690 .00388688 00000-0 16172-2 0 9584 2 38051 051.6190 071.7968 0010482 275.7549 179.8995 15.84060084149854 E-STAR 1 38079U 12006C 14268.87304241 .00162115 00000-0 14838-2 0 9897 2 38079 069.4433 083.3343 0314863 208.5054 149.9041 15.24289816138726 GOLIAT 1 38085U 12006J 14268.89854427 .00131179 00000-0 13160-2 0 3945 2 38085 069.4490 092.9794 0343884 213.1573 144.8084 15.16649518138445 HORYU-2 1 38340U 12025D 14267.42446287 .00001863 00000-0 29933-3 0 9778 2 38340 098.2700 226.3736 0011469 215.9098 144.1345 14.72812208126400 RS-40 1 38735U 12041C 14268.93272073 -.00000020 00000-0 10000-3 0 6958 2 38735 082.4753 224.7173 0017547 037.1847 323.0840 12.42560592 98099 PROITERES 1 38756U 12047B 14268.85999084 -.00000010 00000-0 00000 0 0 2462 2 38756 098.2255 358.7979 0013890 066.2077 294.1095 14.75098251110025 BEESAT-3 1 39134U 13015E 14269.07199685 .00010016 00000-0 66752-3 0 7217 2 39134 064.8752 179.0100 0034849 290.1970 069.5903 15.06349249 78851 BEESAT-2 1 39136U 13015G 14267.38739353 .00006701 00000-0 46906-3 0 7016 2 39136 064.8689 185.1568 0033983 288.8101 070.9334 15.05569882 78586 LO-75 1 39382U 13064C 14268.83678421 .00255254 00000-0 24538-2 0 4283 2 39382 040.4860 201.0251 0024889 241.0444 118.8361 15.65194447 47690 ZACUBE-1 1 39417U 13066B 14267.26913917 .00000833 00000-0 11820-3 0 4228 2 39417 097.7627 334.4513 0061099 282.2818 077.1508 14.78362075 45339 TRITON-1 1 39427U 13066M 14267.12082178 .00001050 00000-0 18346-3 0 2736 2 39427 097.7543 328.1137 0117036 296.0234 062.8953 14.65602413 44880 DELFIN3XT 1 39428U 13066N 14267.11294062 .00001823 00000-0 32101-3 0 2770 2 39428 097.7505 327.0368 0126682 298.8212 060.0314 14.63640098 44808 GOMX-1 1 39430U 13066Q 14269.05850431 .00001179 00000-0 22255-3 0 8539 2 39430 097.7489 325.8426 0154807 301.1985 057.4619 14.57041224 44906 MO-76 1 39436U 13066W 14268.42761801 .00014348 00000-0 14048-2 0 3512 2 39436 097.7710 340.5870 0024025 277.4638 082.4257 14.92179591 45819 LO-74 1 39440U 13066AA 14267.16229691 .00001331 00000-0 20261-3 0 2683 2 39440 097.7609 331.8942 0083106 287.0527 072.1603 14.73292787 45153 PUCPSAT-1 1 39442U 13066AC 14267.13384252 .00002635 00000-0 30131-3 0 2671 2 39442 097.7725 338.1469 0033205 281.6851 078.0591 14.86477416 44320 SHINAISAT 1 39572U 14009A 14268.20970853 .00113498 00000-0 56743-3 0 3140 2 39572 065.0024 053.3028 0021206 277.2528 082.6621 15.80930225 32858 TEIKYOSAT 1 39576U 14009E 14268.19474001 .00245123 29016-4 74763-3 0 3310 2 39576 065.0001 049.1112 0021696 283.2384 076.6662 15.91352085 32935 CO-77 1 39577U 14009F 14244.78324653 .10543803 76292-5 32273-3 0 3795 2 39577 064.9920 123.7668 0014904 269.7208 091.1897 16.43552757 29380 SPROUT 1 39770U 14029E 14268.95872902 .00001299 00000-0 16066-3 0 1439 2 39770 097.8742 004.5776 0010229 354.2225 005.9381 14.82791807 18632 POPSAT-HIP1 1 40028U 14033U 14268.73961152 .00002110 00000-0 25151-3 0 3007 2 40028 097.9740 163.5670 0014101 333.5068 026.5455 14.85324727 14505 EO-80 1 40032U 14033Y 14268.41780422 .00002051 00000-0 24616-3 0 2914 2 40032 097.9728 163.1646 0012516 331.5868 028.4677 14.85091986 14469 VELOX-1 1 40057U 14034E 14268.65410485 .00002035 00000-0 31598-3 0 2871 2 40057 098.2447 337.3359 0012040 011.1126 349.0340 14.74198248 12884 DAURIA DX 1 1 40071U 14037C 14268.65193511 .00000945 00000-0 13368-3 0 2589 2 40071 098.3943 323.8064 0009339 017.7660 342.3877 14.79610646 11669 UKUBE-1 1 40074U 14037F 14268.67166592 .00002025 00000-0 27150-3 0 2601 2 40074 098.3949 323.9516 0005871 032.4154 327.7418 14.80578711 11677 CHASQUI-1 1 40117U 98067ET 14268.98872958 .00064211 00000-0 96466-3 0 1383 2 40117 051.6442 319.4926 0002929 090.4686 269.7158 15.54222225 5942 /EX